| time (UTC) | temp F | wind direction | speed knots | gust knots | rain 1hr in | rain 24hr in | rain mn in | humidity % | barometer mb |
| 20260507060915 | 51 | 255 | 3.5 | 7.0 | 0.00 | 0.20 | 0.20 | 72 | 1014.0 |
| 20260507055715 | 51 | 261 | 2.6 | 5.2 | 0.00 | 0.20 | 0.20 | 75 | 1014.0 |
| 20260507054515 | 50 | 256 | 3.5 | 7.0 | 0.00 | 0.20 | 0.20 | 74 | 1014.0 |
| 20260507053315 | 50 | 287 | 3.5 | 5.2 | 0.00 | 0.20 | 0.20 | 74 | 1014.0 |
| 20260507052116 | 50 | 264 | 3.5 | 6.1 | 0.00 | 0.20 | 0.20 | 75 | 1013.0 |
| 20260507050914 | 50 | 254 | 1.7 | 5.2 | 0.00 | 0.20 | 0.20 | 77 | 1013.0 |
| 20260507045715 | 50 | 259 | 2.6 | 4.3 | 0.00 | 0.20 | 0.20 | 74 | 1013.0 |
| 20260507044515 | 50 | 242 | 2.6 | 6.1 | 0.00 | 0.20 | 0.20 | 74 | 1013.0 |
| 20260507043315 | 50 | 256 | 4.3 | 7.0 | 0.00 | 0.20 | 0.20 | 74 | 1013.0 |
| 20260507042114 | 49 | 242 | 5.2 | 7.8 | 0.00 | 0.20 | 0.20 | 75 | 1013.0 |
| 20260507040914 | 49 | 228 | 6.1 | 7.8 | 0.00 | 0.20 | 0.20 | 79 | 1013.0 |
| 20260507035714 | 48 | 254 | 6.1 | 7.8 | 0.00 | 0.20 | 0.20 | 90 | 1012.0 |
| 20260507034515 | 48 | 254 | 6.1 | 7.8 | 0.00 | 0.20 | 0.20 | 90 | 1012.0 |
| 20260507033315 | 47 | 269 | 3.5 | 5.2 | 0.00 | 0.20 | 0.20 | 92 | 1013.0 |
| 20260507032114 | 47 | 77 | 0.9 | 2.6 | 0.00 | 0.20 | 0.20 | 92 | 1013.0 |
| 20260507030914 | 47 | 37 | 2.6 | 3.5 | 0.00 | 0.20 | 0.20 | 91 | 1013.0 |
| 20260507025715 | 48 | 274 | 2.6 | 5.2 | 0.00 | 0.20 | 0.20 | 89 | 1012.0 |
| 20260507024514 | 48 | 274 | 2.6 | 5.2 | 0.00 | 0.20 | 0.20 | 89 | 1012.0 |
| 20260507023314 | 48 | 268 | 4.3 | 7.0 | 0.00 | 0.20 | 0.20 | 88 | 1012.0 |
| 20260507022114 | 49 | 251 | 4.3 | 7.8 | 0.00 | 0.20 | 0.20 | 88 | 1012.0 |
| 20260507020914 | 48 | 259 | 5.2 | 7.8 | 0.00 | 0.20 | 0.20 | 90 | 1012.0 |
| 20260507015714 | 48 | 251 | 7.8 | 8.7 | 0.00 | 0.20 | 0.20 | 90 | 1012.0 |
| 20260507014514 | 48 | 254 | 7.0 | 8.7 | 0.00 | 0.20 | 0.20 | 90 | 1012.0 |
| 20260507013315 | 48 | 240 | 7.0 | 9.6 | 0.00 | 0.20 | 0.20 | 90 | 1012.0 |
| 20260507012114 | 48 | 241 | 7.0 | 9.6 | 0.00 | 0.20 | 0.20 | 90 | 1012.0 |
| 20260507010914 | 48 | 241 | 7.0 | 8.7 | 0.00 | 0.20 | 0.20 | 90 | 1012.0 |
| 20260507005714 | 48 | 252 | 7.8 | 9.6 | 0.00 | 0.20 | 0.20 | 89 | 1012.0 |
| 20260507004514 | 48 | 252 | 7.8 | 9.6 | 0.00 | 0.20 | 0.20 | 89 | 1012.0 |
| 20260507003318 | 49 | 252 | 6.1 | 7.8 | 0.00 | 0.20 | 0.20 | 87 | 1012.0 |
| 20260507002114 | 49 | 234 | 7.0 | 7.0 | 0.00 | 0.20 | 0.20 | 86 | 1012.0 |
| 20260507000915 | 50 | 251 | 5.2 | 7.8 | 0.00 | 0.20 | 0.20 | 82 | 1012.0 |
| 20260506235714 | 50 | 247 | 7.8 | 8.7 | 0.00 | 0.20 | 0.20 | 81 | 1012.0 |
| 20260506234514 | 50 | 247 | 7.8 | 8.7 | 0.00 | 0.20 | 0.20 | 81 | 1012.0 |
| 20260506233314 | 51 | 237 | 7.0 | 10.4 | 0.00 | 0.20 | 0.20 | 82 | 1012.0 |
| 20260506232114 | 51 | 237 | 7.8 | 13.0 | 0.00 | 0.20 | 0.20 | 80 | 1012.0 |
| 20260506230915 | 51 | 239 | 7.8 | 12.2 | 0.00 | 0.20 | 0.20 | 85 | 1012.0 |
| 20260506225714 | 51 | 242 | 9.6 | 13.0 | 0.00 | 0.20 | 0.20 | 88 | 1011.0 |
| 20260506224514 | 51 | 242 | 7.8 | 13.0 | 0.00 | 0.20 | 0.20 | 87 | 1011.0 |
| 20260506223315 | 51 | 244 | 10.4 | 13.0 | 0.00 | 0.20 | 0.20 | 90 | 1011.0 |
| 20260506222114 | 51 | 244 | 10.4 | 13.0 | 0.00 | 0.20 | 0.20 | 90 | 1011.0 |
| 20260506220914 | 51 | 242 | 8.7 | 14.8 | 0.01 | 0.20 | 0.20 | 90 | 1011.0 |
| 20260506215714 | 51 | 258 | 12.2 | 16.5 | 0.01 | 0.20 | 0.20 | 91 | 1011.0 |
| 20260506214515 | 51 | 237 | 9.6 | 13.0 | 0.01 | 0.20 | 0.20 | 91 | 1011.0 |
| 20260506213314 | 51 | 248 | 7.0 | 13.9 | 0.00 | 0.19 | 0.19 | 92 | 1011.0 |
| 20260506212114 | 51 | 246 | 11.3 | 13.9 | 0.00 | 0.19 | 0.19 | 93 | 1011.0 |
| 20260506210914 | 51 | 246 | 7.8 | 12.2 | 0.00 | 0.19 | 0.19 | 92 | 1011.0 |
| 20260506205714 | 52 | 256 | 16.5 | 19.1 | 0.06 | 0.18 | 0.18 | 92 | 1011.0 |
| 20260506204514 | 52 | 256 | 16.5 | 19.1 | 0.06 | 0.18 | 0.18 | 92 | 1011.0 |
| 20260506203314 | 53 | 267 | 10.4 | 13.0 | 0.04 | 0.16 | 0.16 | 94 | 1011.0 |
| 20260506202114 | 53 | 250 | 11.3 | 14.8 | 0.02 | 0.13 | 0.13 | 94 | 1011.0 |
| 20260506200914 | 53 | 258 | 8.7 | 13.0 | 0.00 | 0.11 | 0.11 | 93 | 1010.0 |
| 20260506195714 | 54 | 270 | 13.0 | 17.4 | 0.08 | 0.09 | 0.09 | 93 | 1010.0 |
| 20260506194515 | 54 | 270 | 13.0 | 17.4 | 0.08 | 0.09 | 0.09 | 93 | 1010.0 |
| 20260506193314 | 54 | 259 | 11.3 | 15.6 | 0.06 | 0.07 | 0.07 | 92 | 1009.0 |
| 20260506192115 | 55 | 260 | 13.0 | 14.8 | 0.04 | 0.05 | 0.05 | 92 | 1009.0 |
| 20260506190915 | 55 | 258 | 7.0 | 11.3 | 0.00 | 0.01 | 0.01 | 90 | 1009.0 |
| 20260506185716 | 56 | 249 | 11.3 | 17.4 | 0.00 | 0.00 | 0.00 | 89 | 1008.0 |
| 20260506184515 | 56 | 251 | 13.9 | 20.0 | 0.00 | 0.00 | 0.00 | 88 | 1008.0 |
| 20260506183314 | 56 | 239 | 12.2 | 20.0 | 0.00 | 0.00 | 0.00 | 84 | 1007.0 |
| 20260506182115 | 56 | 247 | 15.6 | 20.9 | 0.00 | 0.00 | 0.00 | 77 | 1007.0 |
| 20260506180914 | 58 | 242 | 13.0 | 20.0 | 0.00 | 0.00 | 0.00 | 56 | 1007.0 |
| 20260506175714 | 59 | 241 | 13.9 | 17.4 | 0.00 | 0.00 | 0.00 | 52 | 1006.0 |
| 20260506174515 | 59 | 241 | 13.9 | 17.4 | 0.00 | 0.00 | 0.00 | 52 | 1006.0 |
| 20260506173314 | 64 | 268 | 13.0 | 32.2 | 0.00 | 0.00 | 0.00 | 42 | 1005.0 |
| 20260506172114 | 70 | 280 | 29.5 | 35.6 | 0.00 | 0.00 | 0.00 | 32 | 1004.0 |
| 20260506170915 | 71 | 193 | 6.1 | 10.4 | 0.00 | 0.00 | 0.00 | 29 | 1003.0 |
| 20260506165714 | 71 | 128 | 3.5 | 8.7 | 0.00 | 0.02 | 0.00 | 32 | 1004.0 |
| 20260506164515 | 71 | 128 | 3.5 | 8.7 | 0.00 | 0.02 | 0.00 | 32 | 1004.0 |
| 20260506163314 | 71 | 78 | 7.0 | 13.9 | 0.00 | 0.02 | 0.00 | 33 | 1004.0 |
| 20260506162513 | 71 | 74 | 8.7 | 13.0 | 0.00 | 0.02 | 0.00 | 33 | 1004.0 |
| 20260506160914 | 71 | 100 | 12.2 | 14.8 | 0.00 | 0.02 | 0.00 | 32 | 1004.0 |
| 20260506155715 | 72 | 73 | 7.0 | 16.5 | 0.00 | 0.02 | 0.00 | 32 | 1004.0 |
| 20260506154515 | 72 | 69 | 10.4 | 17.4 | 0.00 | 0.02 | 0.00 | 32 | 1004.0 |
| 20260506153314 | 72 | 70 | 10.4 | 15.6 | 0.00 | 0.02 | 0.00 | 34 | 1004.0 |
| 20260506152115 | 71 | 14 | 10.4 | 17.4 | 0.00 | 0.02 | 0.00 | 35 | 1005.0 |
| 20260506150914 | 71 | 22 | 4.3 | 15.6 | 0.00 | 0.02 | 0.00 | 36 | 1005.0 |
| 20260506145714 | 70 | 69 | 7.8 | 14.8 | 0.00 | 0.02 | 0.00 | 36 | 1005.0 |
| 20260506144514 | 70 | 60 | 8.7 | 15.6 | 0.00 | 0.02 | 0.00 | 37 | 1005.0 |
| 20260506143315 | 70 | 46 | 9.6 | 14.8 | 0.00 | 0.02 | 0.00 | 37 | 1005.0 |
| 20260506142114 | 69 | 53 | 7.8 | 13.0 | 0.00 | 0.02 | 0.00 | 38 | 1005.0 |
| 20260506140915 | 69 | 74 | 9.6 | 14.8 | 0.00 | 0.02 | 0.00 | 39 | 1006.0 |
| 20260506135715 | 69 | 21 | 6.1 | 14.8 | 0.00 | 0.02 | 0.00 | 38 | 1006.0 |
| 20260506134516 | 69 | 21 | 6.1 | 14.8 | 0.00 | 0.02 | 0.00 | 38 | 1006.0 |
| 20260506133315 | 68 | 32 | 13.0 | 13.0 | 0.00 | 0.02 | 0.00 | 41 | 1006.0 |
| 20260506132115 | 68 | 53 | 3.5 | 13.9 | 0.00 | 0.02 | 0.00 | 39 | 1006.0 |
| 20260506130915 | 68 | 72 | 11.3 | 12.2 | 0.00 | 0.02 | 0.00 | 38 | 1006.0 |
| 20260506125716 | 69 | 86 | 7.8 | 13.0 | 0.00 | 0.02 | 0.00 | 40 | 1006.0 |
| 20260506124515 | 69 | 73 | 13.0 | 15.6 | 0.00 | 0.02 | 0.00 | 39 | 1006.0 |
| 20260506123315 | 68 | 27 | 5.2 | 14.8 | 0.00 | 0.02 | 0.00 | 41 | 1006.0 |
| 20260506122117 | 67 | 40 | 7.0 | 13.9 | 0.00 | 0.02 | 0.00 | 40 | 1007.0 |
| 20260506120916 | 66 | 91 | 10.4 | 13.0 | 0.00 | 0.02 | 0.00 | 42 | 1007.0 |
| 20260506115715 | 66 | 67 | 9.6 | 12.2 | 0.00 | 0.02 | 0.00 | 44 | 1007.0 |
| 20260506114516 | 65 | 83 | 10.4 | 15.6 | 0.00 | 0.02 | 0.00 | 47 | 1007.0 |
| 20260506113315 | 65 | 74 | 8.7 | 12.2 | 0.00 | 0.02 | 0.00 | 46 | 1007.0 |
| 20260506112115 | 64 | 74 | 9.6 | 11.3 | 0.00 | 0.02 | 0.00 | 47 | 1008.0 |
| 20260506110915 | 64 | 68 | 9.6 | 9.6 | 0.00 | 0.02 | 0.00 | 48 | 1008.0 |
| 20260506105715 | 64 | 70 | 4.3 | 13.9 | 0.00 | 0.02 | 0.00 | 47 | 1008.0 |
| 20260506104515 | 64 | 70 | 4.3 | 13.9 | 0.00 | 0.02 | 0.00 | 47 | 1008.0 |
| 20260506103316 | 63 | 99 | 3.5 | 12.2 | 0.00 | 0.02 | 0.00 | 52 | 1008.0 |
| 20260506100915 | 62 | 68 | 9.6 | 11.3 | 0.00 | 0.02 | 0.00 | 53 | 1008.0 |
| 20260506095715 | 62 | 76 | 5.2 | 12.2 | 0.00 | 0.02 | 0.00 | 52 | 1009.0 |
| 20260506094514 | 62 | 76 | 5.2 | 12.2 | 0.00 | 0.02 | 0.00 | 52 | 1009.0 |
| 20260506093314 | 61 | 71 | 7.0 | 9.6 | 0.00 | 0.02 | 0.00 | 53 | 1009.0 |
| 20260506092115 | 62 | 90 | 5.2 | 10.4 | 0.00 | 0.02 | 0.00 | 53 | 1009.0 |
| 20260506090914 | 61 | 58 | 7.8 | 11.3 | 0.00 | 0.02 | 0.00 | 49 | 1009.0 |
| 20260506085714 | 61 | 66 | 6.1 | 10.4 | 0.00 | 0.02 | 0.00 | 48 | 1008.0 |
| 20260506084515 | 62 | 74 | 6.1 | 12.2 | 0.00 | 0.02 | 0.00 | 48 | 1008.0 |
| 20260506083314 | 62 | 75 | 8.7 | 10.4 | 0.00 | 0.02 | 0.00 | 52 | 1009.0 |
| 20260506082114 | 61 | 121 | 8.7 | 8.7 | 0.00 | 0.02 | 0.00 | 52 | 1009.0 |
| 20260506080914 | 60 | 66 | 5.2 | 9.6 | 0.00 | 0.02 | 0.00 | 59 | 1009.0 |
| 20260506073316 | 57 | 55 | 4.3 | 6.1 | 0.00 | 0.02 | 0.00 | 70 | 1009.0 |
| 20260506072116 | 56 | 67 | 5.2 | 5.2 | 0.00 | 0.02 | 0.00 | 76 | 1009.0 |
| 20260506070916 | 55 | 76 | 4.3 | 5.2 | 0.00 | 0.02 | 0.00 | 88 | 1009.0 |
| 20260506062115 | 52 | 82 | 0.9 | 1.7 | 0.00 | 0.02 | 0.02 | 94 | 1009.0 |